Simultaneous Nadir Overpasses (SNOs) Predictions

Prediction of SNOs between AQUA and NPP Satellite Orbit:

Table of predicted SNOs for the next 14.0 days since TLE Epoch: 2/6/2021
Index Date (AQUA) Time (AQUA) Lat,Lon (AQUA) SZA (AQUA ) Date (NPP) Time (NPP) Lat,Lon (NPP) SZA (NPP ) Distance(km) Time Diff (sec)
1 02/07/2021 06:21:34 76.05, -36.20 112.75 02/07/2021 06:21:10 76.05, -36.22 112.77 0.66 24
2 02/07/2021 07:10:44 -76.91, 134.32 68.26 02/07/2021 07:11:37 -76.90, 134.24 68.29 2.36 53
3 02/09/2021 21:50:40 -69.69,-100.96 61.36 02/09/2021 21:49:26 -69.82,-101.66 61.19 30.73 74
4 02/09/2021 22:37:57 76.37, 80.72 111.54 02/09/2021 22:37:58 76.37, 80.69 111.55 0.96 1
5 02/09/2021 23:24:36 -81.79, -62.70 77.91 02/09/2021 23:25:50 -81.31, -62.60 78.10 53.17 74
6 02/12/2021 14:05:10 -75.96, 27.64 68.84 02/12/2021 14:04:18 -75.97, 27.73 68.82 2.74 52
7 02/12/2021 14:54:19 76.69,-162.33 110.31 02/12/2021 14:54:45 76.69,-162.35 110.29 0.75 26
8 02/15/2021 06:21:39 -75.93, 143.44 69.70 02/15/2021 06:21:13 -75.92, 143.35 69.66 2.48 26
9 02/15/2021 07:10:41 77.04, -45.17 109.00 02/15/2021 07:11:32 77.04, -45.17 108.95 0.07 51
10 02/17/2021 21:51:58 65.25, 74.05 120.37 02/17/2021 21:50:45 65.41, 72.96 120.66 53.69 73
11 02/17/2021 22:38:00 -76.34, -99.40 71.09 02/17/2021 22:37:59 -76.33, -99.45 71.08 1.32 1



Historial Predications of SNOs between AQUA and NPP
